Weather History for KCKC - November, 2013

Change the Weather History Date:

Tuesday, November 19, 2013

  Actual Average Record
Temperature  
Mean Temperature 20 °F -  
Max Temperature 33 °F 29 °F 46 °F (2012)
Min Temperature 6 °F 18 °F 0 °F (2014)
Degree Days  
Heating Degree Days 46    
Moisture  
Dew Point 14 °F    
Average Humidity 77    
Maximum Humidity 86    
Minimum Humidity 60    
Precipitation  
Precipitation 0.00 in - - ()
Sea Level Pressure  
Sea Level Pressure 30.10 in    
Wind  
Wind Speed 5 mph (SE)    
Max Wind Speed 14 mph    
Max Gust Speed 25 mph    
Visibility 10 miles    
Events Snow    
Averages and records for this station are not official NWS values.
T = Trace of Precipitation, MM = Missing Value Source: NWS Daily Summary

Daily Weather History Graph

Daily Weather History Graph

Search for Another Location

Airport or City:

Trip Planner

Search our weather history database for the weather conditions in past years. The results will help you decide how hot, cold, wet, or windy it might be!

Date:

Astronomy

Nov. 19, 2013 Rise Set
Actual Time 7:13 AM CST 4:19 PM CST
Civil Twilight 6:39 AM CST 4:54 PM CST
Nautical Twilight 6:01 AM CST 5:31 PM CST
Astronomical Twilight 5:24 AM CST 6:08 PM CST
Moon 6:09 PM CST (11/19) 8:54 AM CST (11/19)
Length of Visible Light 10h 14m
Length of Day
9h 06m
Waning Gibbous, 96% of the Moon is Illuminated
Nov 19
Waning Gibbous
Nov 25
Last Quarter
Dec 2
New
Dec 9
First Quarter
Dec 17
Full

Hourly Weather History & Observations

Time (CST) Temp. Windchill Dew Point Humidity Pressure Visibility Wind Dir Wind Speed Gust Speed Precip Events Conditions
12:13 AM 12.2 °F 6.1 °F 8.6 °F 85% 30.15 in 10.0 mi WNW 3.5 mph - N/A   Mostly Cloudy
12:33 AM 12.2 °F 4.3 °F 6.8 °F 79% 30.15 in 10.0 mi NW 4.6 mph - N/A   Mostly Cloudy
12:53 AM 12.2 °F 4.3 °F 6.8 °F 79% 30.14 in 10.0 mi NNW 4.6 mph - N/A   Scattered Clouds
1:14 AM 10.4 °F - 6.8 °F 85% 30.15 in 10.0 mi Calm Calm - N/A   Clear
1:33 AM 10.4 °F 4.0 °F 6.8 °F 85% 30.16 in 10.0 mi WNW 3.5 mph - N/A   Clear
1:54 AM 10.4 °F - 6.8 °F 85% 30.17 in 10.0 mi Calm Calm - N/A   Clear
2:14 AM 8.6 °F - 3.2 °F 79% 30.17 in 10.0 mi Calm Calm - N/A   Scattered Clouds
2:33 AM 10.4 °F - 5.0 °F 79% 30.19 in 10.0 mi Calm Calm - N/A   Overcast
2:54 AM 12.2 °F 6.1 °F 6.8 °F 79% 30.19 in 10.0 mi West 3.5 mph - N/A Snow Light Snow
3:14 AM 12.2 °F - 6.8 °F 79% 30.20 in 10.0 mi Calm Calm - N/A   Overcast
3:33 AM 12.2 °F - 6.8 °F 79% 30.20 in 10.0 mi Calm Calm - N/A   Overcast
3:54 AM 12.2 °F - 8.6 °F 85% 30.20 in 7.0 mi Calm Calm - N/A Snow Light Snow
4:14 AM 12.2 °F - 8.6 °F 85% 30.21 in 4.0 mi Calm Calm - N/A Snow Light Snow
4:33 AM 10.4 °F - 6.8 °F 85% 30.21 in 4.0 mi Calm Calm - N/A Snow Light Snow
4:54 AM 10.4 °F 4.0 °F 6.8 °F 85% 30.21 in 10.0 mi NW 3.5 mph - N/A   Mostly Cloudy
5:14 AM 8.6 °F - 5.0 °F 85% 30.21 in 10.0 mi Calm Calm - N/A   Scattered Clouds
5:33 AM 10.4 °F - 6.8 °F 85% 30.20 in 10.0 mi Calm Calm - N/A   Clear
5:53 AM 8.6 °F - 5.0 °F 85% 30.21 in 10.0 mi Calm Calm - N/A   Clear
6:14 AM 6.8 °F - 3.2 °F 85% 30.21 in 10.0 mi Calm Calm - N/A   Clear
6:33 AM 8.6 °F - 3.2 °F 79% 30.21 in 10.0 mi Calm Calm - N/A   Mostly Cloudy
6:53 AM 8.6 °F - 3.2 °F 79% 30.21 in 10.0 mi Calm Calm - N/A   Overcast
7:14 AM 10.4 °F - 6.8 °F 85% 30.22 in 10.0 mi Calm Calm - N/A Snow Light Snow
7:33 AM 10.4 °F - 6.8 °F 85% 30.23 in 10.0 mi Calm Calm - N/A Snow Light Snow
7:54 AM 12.2 °F - 8.6 °F 85% 30.22 in 10.0 mi Calm Calm - N/A Snow Light Snow
8:13 AM 12.2 °F - 8.6 °F 85% 30.21 in 10.0 mi Calm Calm - N/A Snow Light Snow
8:33 AM 15.8 °F - 10.4 °F 79% 30.21 in 10.0 mi Calm Calm - N/A   Overcast
8:54 AM 15.8 °F 10.2 °F 12.2 °F 86% 30.21 in 10.0 mi SE 3.5 mph - N/A   Overcast
9:13 AM 17.6 °F 10.7 °F 12.2 °F 79% 30.21 in 10.0 mi ESE 4.6 mph - N/A   Overcast
9:33 AM 17.6 °F 12.3 °F 12.2 °F 79% 30.21 in 10.0 mi SE 3.5 mph - N/A   Overcast
9:54 AM 19.4 °F - 14.0 °F 80% 30.20 in 10.0 mi Calm Calm - N/A   Overcast
10:14 AM 19.4 °F 8.6 °F 14.0 °F 80% 30.20 in 10.0 mi SE 9.2 mph - N/A   Overcast
10:33 AM 19.4 °F 10.4 °F 14.0 °F 80% 30.20 in 10.0 mi SE 6.9 mph - N/A   Overcast
10:54 AM 21.2 °F 12.6 °F 15.8 °F 80% 30.19 in 10.0 mi SE 6.9 mph - N/A   Overcast
11:14 AM 21.2 °F 14.9 °F 15.8 °F 80% 30.18 in 10.0 mi SE 4.6 mph - N/A   Overcast
11:33 AM 21.2 °F 12.6 °F 15.8 °F 80% 30.17 in 10.0 mi SE 6.9 mph - N/A   Overcast
11:54 AM 23.0 °F 15.8 °F 17.6 °F 80% 30.16 in 10.0 mi SE 5.8 mph - N/A   Overcast
12:14 PM 23.0 °F 14.7 °F 17.6 °F 80% 30.15 in 10.0 mi ESE 6.9 mph - N/A   Overcast
12:33 PM 24.8 °F 16.1 °F 17.6 °F 74% 30.15 in 10.0 mi ESE 8.1 mph - N/A   Overcast
12:53 PM 23.0 °F 13.9 °F 17.6 °F 80% 30.14 in 10.0 mi ESE 8.1 mph - N/A   Overcast
1:14 PM 24.8 °F 15.3 °F 17.6 °F 74% 30.12 in 10.0 mi SE 9.2 mph - N/A   Overcast
1:33 PM 24.8 °F 16.1 °F 17.6 °F 74% 30.12 in 10.0 mi ESE 8.1 mph - N/A   Overcast
1:53 PM 24.8 °F 14.6 °F 17.6 °F 74% 30.12 in 10.0 mi SE 10.4 mph - N/A   Overcast
2:14 PM 24.8 °F 14.0 °F 17.6 °F 74% 30.10 in 10.0 mi ESE 11.5 mph 19.6 mph N/A   Overcast
2:33 PM 24.8 °F 14.0 °F 19.4 °F 80% 30.09 in 10.0 mi ESE 11.5 mph 16.1 mph N/A   Overcast
2:53 PM 24.8 °F 12.9 °F 19.4 °F 80% 30.08 in 10.0 mi ESE 13.8 mph 17.3 mph N/A   Overcast
3:14 PM 24.8 °F 14.0 °F 19.4 °F 80% 30.07 in 10.0 mi East 11.5 mph 21.9 mph N/A   Overcast
3:33 PM 24.8 °F 13.4 °F 19.4 °F 80% 30.06 in 10.0 mi East 12.7 mph 18.4 mph N/A   Overcast
3:53 PM 24.8 °F 14.6 °F 19.4 °F 80% 30.06 in 10.0 mi East 10.4 mph 16.1 mph N/A   Overcast
4:14 PM 24.8 °F 14.0 °F 19.4 °F 80% 30.05 in 10.0 mi ESE 11.5 mph 17.3 mph N/A   Overcast
4:33 PM 24.8 °F 14.6 °F 19.4 °F 80% 30.04 in 10.0 mi East 10.4 mph 17.3 mph N/A   Mostly Cloudy
4:53 PM 24.8 °F 14.6 °F 19.4 °F 80% 30.02 in 10.0 mi ESE 10.4 mph 16.1 mph N/A   Scattered Clouds
5:14 PM 24.8 °F 14.0 °F 19.4 °F 80% 30.01 in 10.0 mi ESE 11.5 mph 17.3 mph N/A   Mostly Cloudy
5:33 PM 24.8 °F 12.9 °F 19.4 °F 80% 30.00 in 10.0 mi ESE 13.8 mph 20.7 mph N/A   Scattered Clouds
5:53 PM 26.6 °F 17.5 °F 19.4 °F 74% 30.00 in 10.0 mi SE 9.2 mph 20.7 mph N/A   Clear
6:14 PM 26.6 °F 16.8 °F 21.2 °F 80% 29.99 in 10.0 mi East 10.4 mph 17.3 mph N/A   Clear
6:34 PM 28.4 °F 18.0 °F 21.2 °F 74% 29.98 in 10.0 mi ESE 12.7 mph 19.6 mph N/A   Clear
6:53 PM 30.2 °F 20.2 °F 21.2 °F 69% 29.97 in 10.0 mi ESE 12.7 mph 21.9 mph N/A   Scattered Clouds
7:13 PM 30.2 °F 21.3 °F 21.2 °F 69% 29.95 in 10.0 mi ESE 10.4 mph 17.3 mph N/A   Scattered Clouds
7:34 PM 30.2 °F 20.8 °F 23.0 °F 75% 29.95 in 10.0 mi SE 11.5 mph 18.4 mph N/A   Clear
7:53 PM 30.2 °F 21.9 °F 23.0 °F 75% 29.95 in 10.0 mi SE 9.2 mph 17.3 mph N/A   Clear
8:13 PM 32.0 °F 23.0 °F 23.0 °F 69% 29.95 in 10.0 mi SE 11.5 mph 17.3 mph N/A   Clear
8:34 PM 32.0 °F 23.6 °F 21.2 °F 64% 29.94 in 10.0 mi SE 10.4 mph 20.7 mph N/A   Scattered Clouds
8:53 PM 32.0 °F 24.8 °F 21.2 °F 64% 29.93 in 10.0 mi SSE 8.1 mph 16.1 mph N/A   Scattered Clouds
9:13 PM 32.0 °F 23.0 °F 21.2 °F 64% 29.93 in 10.0 mi SSE 11.5 mph 17.3 mph N/A   Clear
9:34 PM 33.8 °F 27.0 °F 21.2 °F 60% 29.94 in 10.0 mi SSE 8.1 mph - N/A   Scattered Clouds
9:53 PM 33.8 °F 26.4 °F 21.2 °F 60% 29.93 in 10.0 mi SSE 9.2 mph 17.3 mph N/A   Mostly Cloudy
10:13 PM 33.8 °F 25.3 °F 21.2 °F 60% 29.92 in 10.0 mi SSE 11.5 mph 17.3 mph N/A   Overcast
10:34 PM 33.8 °F 25.3 °F 21.2 °F 60% 29.92 in 10.0 mi SSE 11.5 mph 19.6 mph N/A   Mostly Cloudy
10:53 PM 33.8 °F 24.8 °F 21.2 °F 60% 29.93 in 10.0 mi SSE 12.7 mph 19.6 mph N/A   Scattered Clouds
11:14 PM 33.8 °F 25.3 °F 21.2 °F 60% 29.92 in 10.0 mi South 11.5 mph 24.2 mph N/A   Mostly Cloudy
11:34 PM 33.8 °F 24.3 °F 21.2 °F 60% 29.92 in 10.0 mi SSE 13.8 mph 25.3 mph N/A   Overcast
11:54 PM 33.8 °F 25.3 °F 21.2 °F 60% 29.91 in 10.0 mi SSE 11.5 mph 21.9 mph N/A   Overcast